Wind_Speed
18 18 18 18 19 19 19 19 19 20 20 20 20 20 20 20 20 20 21 21 22 22 23 24 24 24 25 25 26 27 28 28 28 29 29 30 31 33 34 34 34 33 32 32 33 31 30 29 29 30 30 34 33 29 27 22 19 18 17 16 15 13 11 10 10 10 10 9 7 8 9 9 10 10 11 11 13 16 17 18 19 20 21 21 21 19 18 17
17 17 18 18 19 19 19 20 20 20 20 20 20 20 20 20 20 20 21 21 22 22 23 23 24 25 25 26 26 27 28 28 29 29 30 30 31 33 34 35 35 34 33 33 33 33 32 31 32 35 36 36 33 30 28 25 21 19 17 16 15 13 11 10 10 9 8 8 8 8 8 8 9 9 10 10 11 14 16 16 17 18 19 20 20 20 19 18
16 17 18 18 19 19 19 20 20 20 20 20 20 21 21 20 21 21 21 21 21 22 23 23 24 25 25 26 26 27 28 29 29 30 30 31 31 33 34 35 35 35 35 33 34 34 34 34 34 36 38 38 33 30 30 27 24 21 19 18 15 12 9 7 6 7 8 9 9 9 8 8 8 8 9 9 10 12 14 15 15 16 17 18 19 19 19 18
17 17 18 18 19 19 19 20 20 20 20 20 20 21 21 21 21 21 21 21 21 22 22 23 24 24 25 26 27 27 28 29 30 31 31 31 32 33 34 35 36 36 36 35 35 36 37 37 36 35 37 39 36 33 32 28 25 23 20 19 16 13 10 6 4 5 11 12 10 9 9 8 8 8 8 9 8 10 13 13 14 14 16 17 18 18 19 18
17 18 18 19 19 20 20 20 20 20 20 21 21 21 21 21 21 21 21 21 22 22 22 23 24 24 25 26 27 27 28 29 30 31 31 32 33 33 34 34 36 36 37 36 35 36 39 40 39 34 35 38 36 34 33 30 27 24 23 20 18 16 14 11 10 12 15 15 13 10 9 7 7 8 7 8 7 8 11 12 12 13 14 15 16 17 18 18
18 19 19 20 20 20 21 21 21 21 21 21 21 21 21 21 21 21 22 22 22 22 23 23 24 24 25 26 27 27 28 29 30 31 32 33 34 34 34 34 35 36 37 38 37 37 40 42 42 38 36 38 34 30 33 33 29 27 26 23 22 21 19 16 15 17 18 17 15 12 9 8 8 8 8 8 7 7 9 10 10 11 12 13 14 15 16 17
19 20 20 20 21 21 21 22 22 22 22 22 22 22 22 22 22 22 22 22 22 22 23 23 24 24 25 26 27 27 28 29 30 31 32 33 34 35 35 35 35 36 37 39 39 39 39 41 45 43 39 40 36 29 30 32 28 27 28 27 27 25 24 21 19 20 19 17 16 13 11 11 11 9 8 9 8 7 7 9 9 9 10 11 12 13 14 15
20 21 21 21 22 22 22 22 23 23 23 23 23 23 23 22 22 22 22 22 22 23 23 23 24 24 25 26 26 28 28 29 29 31 32 33 34 35 36 36 35 36 37 38 40 41 41 41 44 44 42 42 40 34 32 33 29 28 29 28 29 29 27 25 24 23 19 17 16 14 13 13 13 12 10 10 9 9 7 7 8 7 8 8 10 11 12 13
21 21 22 22 22 22 23 23 23 23 23 23 24 24 24 23 23 23 23 23 23 23 23 23 24 25 25 26 27 28 28 29 29 30 32 33 34 35 36 36 36 37 37 38 40 42 42 42 43 44 44 44 44 41 38 36 33 31 31 29 30 30 29 27 25 22 18 17 16 17 18 15 15 14 12 11 10 10 8 6 7 6 6 6 7 9 10 11
21 22 22 23 23 23 23 23 23 23 24 24 24 24 24 25 25 24 24 24 24 24 24 24 24 24 25 26 27 28 28 29 29 30 31 33 34 35 35 36 37 37 38 37 38 41 42 43 43 44 44 45 45 45 43 41 37 34 32 31 32 31 29 29 26 22 20 21 20 21 21 17 16 16 14 13 11 10 9 7 6 6 5 5 5 6 8 9
21 22 22 23 23 24 24 24 24 24 24 24 24 24 25 25 26 26 26 26 25 25 25 25 25 24 25 26 27 28 28 29 29 30 31 32 33 34 35 36 37 38 39 38 37 40 42 43 44 44 44 44 45 45 44 43 43 39 34 33 34 34 33 33 31 27 24 24 24 22 22 19 16 15 15 14 11 9 9 8 6 6 5 4 4 4 5 7
21 22 22 23 23 24 24 24 24 24 24 24 25 25 25 26 26 26 27 27 26 26 26 26 25 25 25 26 26 27 28 29 29 30 30 31 32 33 35 35 36 37 39 38 38 39 42 43 45 45 44 45 46 46 45 44 44 44 39 36 36 35 36 36 35 31 27 26 26 24 23 22 18 15 15 14 12 10 9 9 7 6 6 4 3 3 3 5
22 22 22 22 23 23 24 24 25 25 25 25 25 25 25 26 26 27 27 27 27 27 27 26 26 26 26 26 26 27 28 29 29 30 30 31 31 32 34 34 35 37 37 38 39 39 41 43 45 45 45 45 46 47 48 46 44 43 40 39 38 35 33 35 35 33 29 27 27 25 24 24 22 19 16 14 13 12 10 11 10 8 7 6 4 3 2 3
21 21 22 22 22 23 23 24 24 24 25 25 25 25 25 25 26 26 26 27 27 27 27 27 27 27 27 27 27 27 28 29 29 30 30 30 31 32 33 34 35 37 38 39 41 42 42 43 44 45 46 46 47 48 49 48 47 45 41 39 41 39 35 34 36 36 32 29 27 26 24 24 24 22 18 15 14 13 13 13 12 10 9 8 6 5 3 0
17 18 19 19 20 20 21 21 21 22 22 22 23 23 23 24 24 25 25 25 26 26 26 26 26 26 26 27 27 27 28 29 29 30 30 31 30 31 32 34 35 36 39 40 41 43 43 43 44 45 46 47 47 48 49 49 49 48 44 40 40 43 38 33 34 37 36 33 30 28 26 26 25 23 20 18 16 14 14 14 12 11 11 10 9 7 5 3
15 16 16 17 17 17 18 18 19 19 19 20 20 20 21 21 22 22 23 23 24 24 24 24 25 24 25 26 27 27 28 29 30 29 30 31 30 31 32 33 35 36 38 39 41 42 43 43 44 45 46 47 48 49 49 50 50 50 48 45 43 45 42 35 33 35 36 36 33 31 29 28 26 25 22 20 18 17 17 16 14 13 12 12 11 9 8 6
15 16 17 17 18 18 18 18 19 19 19 19 19 19 19 20 20 21 22 22 23 22 22 22 23 22 23 24 25 26 27 28 29 29 30 30 31 31 31 32 34 35 37 38 39 41 42 44 44 45 46 47 48 50 50 50 52 52 50 50 49 49 47 42 37 35 34 35 35 34 33 29 27 27 25 21 20 20 21 20 18 16 14 13 12 11 10 8
16 16 17 18 19 19 20 20 20 20 20 21 20 20 20 20 21 21 22 22 23 22 21 22 21 21 22 23 24 25 26 27 28 29 30 30 30 31 31 32 33 35 36 37 38 39 41 43 44 45 46 47 48 49 51 51 53 52 52 53 52 51 51 47 42 39 36 35 34 35 34 31 30 30 28 24 22 23 23 22 20 17 15 14 13 12 12 10
17 17 18 18 19 20 20 21 21 21 22 22 22 23 22 22 22 22 23 24 24 23 23 24 21 21 22 22 23 23 24 26 26 27 29 30 30 30 31 32 32 34 36 37 37 38 39 41 43 45 46 48 48 49 51 52 52 52 53 55 54 51 51 51 48 46 43 40 37 36 35 33 31 31 30 26 25 25 24 23 22 19 17 15 15 15 14 13
18 19 19 19 20 21 21 22 22 22 22 22 23 23 24 25 24 24 25 24 24 24 24 25 23 22 22 23 23 23 24 25 25 26 27 29 30 30 31 32 32 33 35 36 36 37 38 40 42 44 45 47 49 50 52 52 53 54 54 56 55 52 50 52 51 49 47 45 42 40 39 38 35 33 33 30 29 28 26 25 25 22 19 17 17 17 16 15
21 21 21 21 21 22 22 23 23 23 23 23 23 23 24 26 25 26 28 26 25 26 25 25 25 23 23 24 24 23 23 24 24 25 26 27 29 30 31 31 31 32 34 35 36 36 37 38 40 43 44 46 49 51 52 52 53 55 55 55 55 53 50 49 50 50 48 45 43 42 40 40 39 37 37 35 32 30 28 28 28 25 22 20 19 19 17 16
23 23 23 23 23 23 24 24 25 25 24 24 24 24 24 26 25 26 28 27 27 28 26 26 26 24 24 25 25 24 23 24 24 24 25 26 28 29 30 31 31 31 32 34 36 36 37 38 40 42 43 45 48 50 51 52 53 54 54 55 55 53 51 49 48 50 51 48 45 44 41 40 41 40 40 39 35 32 29 29 29 27 25 23 22 21 20 17
25 26 26 26 26 25 25 26 26 26 26 26 26 26 26 26 26 26 27 27 28 28 28 28 26 26 25 25 25 25 24 24 24 25 25 25 27 28 30 30 30 31 31 33 35 36 37 37 39 41 42 44 46 48 49 50 51 52 52 54 55 53 52 51 51 51 52 52 50 49 46 44 43 42 42 41 38 35 32 31 31 31 29 26 24 24 22 20
27 27 28 28 29 29 28 28 28 28 28 28 28 28 28 28 27 26 26 26 27 27 27 28 28 28 27 26 26 26 24 23 25 26 25 25 26 28 29 29 30 30 30 32 34 36 36 37 38 40 41 41 43 45 46 47 49 50 51 53 55 53 53 53 54 54 53 53 53 52 51 48 46 44 43 42 39 38 36 33 32 32 31 28 27 27 25 23
27 28 29 30 31 32 31 31 30 30 30 30 30 30 30 30 29 28 27 26 28 27 27 28 29 29 29 28 28 26 23 24 26 26 26 25 25 27 28 28 29 30 30 31 33 35 36 37 38 38 39 40 41 43 44 45 46 48 50 53 53 52 53 53 54 55 54 54 55 54 53 52 50 48 46 44 41 39 38 35 32 31 31 30 29 31 30 27
28 28 29 31 32 33 33 33 32 33 32 32 32 32 32 31 31 30 28 28 28 27 28 29 29 30 30 29 29 27 25 25 26 26 27 26 25 27 27 28 29 29 30 31 32 34 35 36 37 38 38 39 40 41 42 43 44 47 49 51 51 51 53 53 53 54 54 54 55 55 54 54 53 52 50 49 46 44 43 41 38 34 33 32 31 32 32 29
28 28 29 31 32 33 34 34 34 34 34 34 34 34 34 33 33 32 30 30 28 26 30 31 28 29 29 29 31 30 26 26 26 27 28 25 25 27 27 27 28 28 30 31 32 33 34 36 36 36 37 38 39 40 40 41 43 45 46 48 50 51 53 53 53 53 52 53 54 54 54 54 54 52 52 52 51 49 47 46 43 40 36 33 31 31 32 30
29 29 29 31 32 33 34 35 35 35 35 36 36 36 36 36 35 34 33 33 29 27 33 33 28 27 27 28 31 31 27 27 28 27 27 25 27 28 26 27 28 28 29 30 31 31 33 35 36 36 37 37 38 38 39 40 42 43 44 46 49 51 52 52 52 52 51 51 52 53 53 54 54 53 52 53 53 52 50 48 46 43 40 38 34 32 31 31
30 30 30 32 33 34 34 35 35 35 36 36 36 37 38 37 37 36 35 35 32 30 34 34 30 29 28 27 30 30 28 29 29 26 27 27 28 28 26 26 28 28 29 29 29 31 33 35 36 35 35 36 36 36 37 39 39 40 42 45 47 48 48 48 48 48 49 50 51 52 53 54 55 55 53 52 52 51 52 51 49 46 44 43 41 36 34 34
30 30 31 33 34 34 34 35 35 36 36 36 37 37 38 38 38 38 37 37 36 33 34 35 33 32 30 27 29 30 29 31 29 26 29 29 27 27 26 26 27 28 28 29 29 30 32 35 35 34 34 35 35 36 37 37 36 38 41 44 44 44 44 44 44 45 47 48 49 51 53 54 54 55 54 52 51 50 51 52 51 49 47 44 44 42 40 39
30 30 32 34 34 34 35 35 36 36 37 37 37 37 38 38 38 39 39 38 37 35 35 36 35 35 33 28 29 29 30 32 30 28 32 30 26 26 26 26 27 27 27 28 29 30 32 33 33 33 34 34 34 36 37 36 36 38 40 41 41 41 41 41 41 43 45 46 48 50 51 52 53 54 53 52 50 49 50 51 51 52 49 45 44 44 43 41
32 31 32 33 33 34 34 35 35 36 37 37 38 38 38 38 39 40 39 38 37 35 36 37 36 36 34 30 30 28 29 32 31 32 34 32 28 27 27 26 27 28 28 29 28 29 31 32 32 32 33 33 34 35 36 36 36 37 38 39 40 39 39 39 40 42 44 46 47 48 50 52 52 53 53 52 49 47 49 50 51 53 52 48 46 45 42 41
35 33 33 33 34 34 35 35 35 36 37 37 38 38 39 39 40 41 40 38 38 35 35 38 38 37 35 32 31 29 29 30 32 35 35 33 30 28 28 26 26 29 29 28 28 29 30 30 30 31 32 32 33 34 34 34 34 36 38 39 39 38 38 39 40 43 44 45 46 47 49 51 51 52 51 50 48 47 48 47 48 50 51 50 48 46 44 42
37 35 34 34 35 36 37 37 37 37 37 37 38 39 39 40 41 41 40 40 38 34 36 40 39 37 36 35 32 30 31 29 30 35 36 34 32 30 29 28 27 29 27 26 28 28 28 28 29 31 31 31 32 32 32 31 32 35 38 38 38 39 39 40 41 42 41 42 43 44 45 46 48 48 47 47 46 45 46 46 46 48 50 50 49 48 47 45
40 37 36 36 37 38 38 39 39 38 38 37 38 39 40 42 42 41 40 40 39 36 37 40 39 38 37 36 34 32 33 31 29 34 36 35 34 33 31 29 28 28 25 26 28 27 27 29 29 29 29 30 31 30 30 30 32 36 37 38 38 38 39 40 41 40 39 40 40 40 40 42 45 45 44 45 43 43 45 46 46 46 47 48 48 48 49 48
44 41 38 37 38 39 39 40 40 40 40 39 38 39 41 42 42 42 40 39 41 40 39 39 39 39 37 36 35 34 34 33 30 32 36 37 37 35 32 30 29 28 26 26 27 26 27 29 27 27 29 29 28 28 30 32 34 35 35 35 36 36 38 39 40 40 39 39 39 39 40 41 41 40 41 43 41 41 44 45 45 46 44 45 45 46 49 50
48 45 42 40 40 41 41 42 42 42 42 41 40 40 40 42 42 42 40 40 44 43 39 39 40 40 38 36 36 36 36 34 30 31 35 37 38 36 34 32 31 29 27 27 27 26 28 26 23 26 29 27 27 29 31 32 32 32 33 34 34 35 36 37 38 38 38 39 39 39 41 42 41 38 38 39 38 39 40 41 43 44 44 43 43 45 49 51
52 50 46 43 43 43 44 44 44 44 44 43 43 42 41 41 42 41 40 41 45 44 39 40 41 39 38 37 36 36 37 35 32 33 34 36 38 39 36 33 32 31 29 27 26 26 27 24 22 25 27 27 28 30 31 31 31 32 32 33 33 34 35 36 36 36 37 38 39 40 41 42 41 38 37 36 35 34 35 37 40 40 39 41 42 44 47 51
56 54 51 48 47 46 46 47 47 46 46 45 45 44 42 42 41 41 40 42 45 43 40 43 42 38 38 38 37 38 39 37 34 34 34 35 38 40 38 34 33 34 31 29 27 27 28 26 25 26 25 26 28 29 30 30 30 31 31 31 32 33 34 34 34 34 35 35 37 38 39 39 38 37 37 36 34 33 33 34 36 36 36 38 40 42 43 46
60 59 56 53 51 51 50 50 49 48 48 48 47 45 44 42 42 41 39 42 45 41 40 44 42 38 37 38 41 40 39 39 37 36 36 36 37 39 40 38 36 35 33 30 29 30 29 27 26 25 23 24 28 29 29 27 27 28 29 30 31 31 31 32 32 32 33 34 34 35 35 34 34 34 34 33 31 31 32 33 34 34 36 38 39 39 39 41
64 63 61 58 56 55 55 54 53 51 50 50 48 47 44 43 45 42 38 41 45 41 41 43 42 38 35 39 43 41 39 40 39 37 36 35 36 39 41 40 38 37 34 32 31 32 31 29 28 26 24 26 28 27 26 24 24 26 28 29 29 29 29 30 30 30 30 30 30 31 32 31 30 30 30 29 28 29 30 32 31 32 34 37 38 38 37 38
67 66 64 63 61 60 59 58 56 53 52 51 49 48 45 44 46 44 39 41 44 42 41 41 41 38 35 39 45 43 40 41 41 39 38 36 37 40 41 41 40 38 35 33 32 34 33 31 29 29 27 27 26 24 24 24 23 25 27 27 28 28 27 26 26 27 26 26 26 27 28 27 27 27 25 25 26 27 29 29 29 30 33 35 38 40 40 37
70 69 68 67 65 64 63 61 59 56 54 52 50 47 45 44 46 45 41 41 43 42 41 41 40 39 36 39 44 44 42 41 41 41 41 39 39 40 41 41 41 39 35 34 35 36 35 33 31 31 29 27 26 25 25 25 25 26 28 28 27 25 23 22 23 24 24 24 24 22 22 23 23 23 23 24 25 25 26 27 28 30 31 34 38 41 43 40
73 72 71 71 70 68 66 63 61 57 53 50 47 45 44 43 45 46 43 42 44 43 42 42 41 39 37 39 43 44 44 42 42 44 45 42 40 40 41 42 42 40 38 39 39 38 37 36 34 34 32 28 28 29 28 28 28 29 29 28 27 24 22 22 23 24 24 24 22 20 19 20 21 21 23 25 25 24 23 25 28 29 30 32 35 38 41 42
77 76 74 74 74 72 69 65 62 58 53 49 46 43 42 41 43 45 45 44 45 44 43 43 42 40 38 38 40 43 45 44 44 46 46 44 42 41 41 42 43 41 41 43 40 38 38 38 35 35 33 31 32 34 32 30 30 30 29 29 27 25 24 24 26 26 25 24 22 20 19 20 20 21 22 24 25 24 23 24 26 28 29 30 31 33 35 37
81 81 79 77 76 74 71 66 61 57 53 49 46 43 40 39 41 45 46 45 45 44 44 44 43 41 38 37 40 44 45 46 46 48 47 45 44 43 42 43 43 42 43 44 41 38 38 37 36 36 35 35 37 35 31 30 30 31 30 29 28 27 26 26 27 26 26 26 23 20 20 20 19 20 23 24 24 24 25 26 25 25 25 25 26 28 30 33
84 84 84 82 79 75 70 64 59 55 51 47 44 41 39 39 42 44 45 45 45 44 44 44 43 42 40 39 41 44 45 46 48 49 49 48 46 44 44 45 43 41 43 44 41 39 39 38 37 37 38 38 38 34 31 30 30 31 31 30 29 28 27 28 28 27 26 25 20 18 21 22 21 21 23 24 25 24 24 26 26 25 23 23 23 24 26 30
86 86 86 85 82 75 68 60 54 50 47 44 41 40 40 41 42 44 44 45 46 45 45 45 45 44 43 41 40 41 43 46 49 51 50 49 47 46 47 46 41 40 44 44 42 41 41 40 39 37 38 39 38 34 33 33 32 31 31 31 30 29 30 30 29 27 26 23 20 19 22 24 24 23 22 23 25 27 27 26 25 26 26 26 25 24 24 27
88 89 89 87 82 75 67 58 50 45 43 41 40 39 40 40 42 43 43 44 46 45 43 44 45 45 43 39 37 40 42 43 47 52 52 50 49 48 48 45 43 43 44 43 43 42 42 42 40 38 38 39 37 35 34 34 33 32 31 30 29 29 31 31 29 28 27 24 22 23 23 23 24 23 22 23 26 28 28 26 25 26 27 27 26 23 23 25
91 91 91 89 83 74 64 55 47 43 41 39 37 37 36 36 38 39 38 40 43 44 43 43 43 42 40 36 35 41 44 42 44 49 51 48 47 48 46 44 45 47 46 43 42 44 44 43 42 41 40 39 37 36 36 35 34 33 32 30 29 30 31 31 30 28 27 25 24 24 23 23 23 23 22 23 25 26 27 27 26 25 26 28 27 24 21 21
93 93 92 89 82 72 62 53 46 41 39 37 34 33 32 33 33 33 34 37 42 44 44 46 44 40 40 40 38 38 40 40 42 45 47 47 47 47 44 42 45 46 46 45 45 44 46 46 44 43 42 40 39 37 36 37 35 34 33 32 31 32 33 33 32 29 27 24 22 21 21 21 22 24 23 23 23 25 27 29 28 27 28 29 29 27 24 23
95 95 94 89 81 71 60 51 46 41 37 35 32 30 31 31 30 32 34 36 41 44 44 45 45 41 40 42 39 35 36 39 43 46 49 50 51 50 47 46 48 48 46 47 47 46 47 46 46 45 43 42 41 39 38 39 37 35 35 35 35 34 34 33 31 29 26 23 20 19 20 19 20 22 23 23 25 26 27 29 29 29 31 32 31 30 29 26
Wind_Direction
260 261 262 262 263 263 263 264 264 264 264 263 263 263 262 260 259 258 258 257 256 254 252 251 249 247 244 242 239 236 233 230 227 225 224 224 223 223 223 223 224 223 220 218 215 214 213 210 209 214 219 222 225 225 226 232 231 226 227 230 237 245 256 267 275 276 274 275 280 295 311 317 323 334 342 348 354 358 6 12 18 24 26 29 32 37 42 48
265 264 264 264 264 264 265 265 265 265 265 264 263 263 262 261 260 258 257 257 256 255 254 252 250 248 245 243 240 238 235 231 228 226 224 223 223 223 223 222 223 223 221 218 215 213 213 209 207 216 222 221 224 225 225 229 232 234 234 232 237 242 251 267 276 273 264 265 271 286 302 308 316 326 331 341 352 356 4 11 16 24 28 32 35 37 43 50
268 268 267 266 266 266 266 267 268 267 266 265 264 264 262 261 260 259 257 256 256 255 254 253 251 249 247 245 242 239 237 233 230 227 225 223 222 223 222 222 222 222 221 218 215 213 212 210 209 218 222 220 221 224 225 229 233 237 239 237 239 242 247 261 275 280 271 269 274 281 291 295 302 312 322 335 347 353 0 9 15 23 28 34 39 39 43 50
273 272 271 270 269 269 269 270 270 270 269 268 267 266 264 263 262 260 259 257 256 255 254 254 253 251 249 247 244 241 239 236 233 229 226 224 223 222 222 222 221 222 221 219 217 215 213 210 212 220 221 219 220 222 224 229 232 232 234 236 240 240 232 222 206 246 265 268 274 276 279 286 289 294 310 325 338 351 356 4 13 22 28 33 41 43 44 49
276 276 275 274 274 273 273 273 272 272 271 271 270 269 267 265 264 262 260 258 256 255 254 253 253 252 250 249 246 243 240 238 235 232 229 226 224 223 222 222 221 221 220 219 218 217 215 211 213 218 217 218 220 224 226 228 231 229 229 229 230 230 217 211 211 220 244 256 262 267 270 277 277 281 299 314 325 346 352 358 9 19 27 33 40 46 47 49
278 277 278 277 277 276 276 276 275 275 274 274 273 272 270 268 266 264 262 260 257 255 254 253 252 251 251 250 248 245 242 240 238 234 232 229 226 224 222 221 220 220 220 218 218 218 217 213 215 217 214 214 215 223 226 225 230 229 227 224 221 221 212 212 226 228 240 250 252 258 259 256 260 276 296 302 310 333 347 352 3 17 24 32 40 46 50 51
278 278 278 278 278 278 278 277 277 277 277 277 276 275 273 272 270 267 265 262 259 257 254 253 251 251 249 249 248 246 244 241 239 237 234 231 229 226 223 222 221 220 220 218 218 220 219 216 218 219 216 214 212 217 220 217 222 223 223 225 220 220 215 213 229 238 244 249 248 253 254 253 257 266 282 286 296 315 335 344 354 12 21 29 39 48 52 54
278 278 278 279 279 279 279 279 279 279 279 279 278 277 276 275 273 271 269 266 263 260 256 253 251 250 249 248 247 245 245 242 240 238 236 234 231 229 225 223 221 221 220 219 219 220 220 218 219 220 217 216 215 217 218 213 213 213 216 222 219 221 223 223 236 241 240 242 245 251 250 250 255 257 263 273 287 300 314 334 345 0 16 25 36 49 54 55
278 279 279 279 280 280 280 280 280 280 279 280 279 279 278 277 275 273 271 269 266 264 260 256 252 251 249 248 247 245 244 242 240 239 238 236 233 231 228 224 222 221 220 220 220 220 221 220 220 220 219 218 218 220 220 217 216 217 219 222 221 223 225 227 233 232 227 231 235 242 247 245 249 252 256 265 277 289 297 314 331 345 1 17 32 47 57 57
279 279 279 279 280 279 280 280 280 280 279 279 279 278 278 277 276 274 273 271 269 267 264 261 257 253 251 250 248 246 244 242 240 239 238 237 235 232 229 227 224 222 221 221 221 221 221 221 220 221 220 219 219 221 222 221 220 219 220 223 223 223 222 223 225 224 225 229 229 234 243 245 248 252 252 256 265 282 286 293 313 325 338 1 21 41 57 58
278 278 279 279 279 279 279 279 278 279 278 278 278 277 277 276 275 274 273 272 271 270 268 266 263 258 255 252 250 248 246 244 241 239 237 237 236 234 230 228 226 224 221 220 222 222 221 221 220 220 220 219 219 220 221 223 222 221 222 223 226 227 227 227 230 233 233 231 231 233 238 242 248 250 248 250 258 271 276 276 292 305 315 335 354 22 53 61
278 277 278 278 278 278 278 278 278 278 278 278 277 277 276 275 274 274 273 273 272 272 271 269 267 264 260 255 252 250 248 245 243 240 237 236 236 235 232 229 227 227 223 221 222 223 222 221 221 221 220 219 220 220 220 222 223 224 225 224 225 230 233 235 235 237 234 229 231 233 237 239 238 242 245 249 252 257 269 271 273 283 292 299 314 343 35 62
280 279 279 278 277 277 277 278 278 279 279 279 278 277 276 275 275 274 273 273 272 272 271 270 268 266 263 259 255 252 249 247 244 241 238 236 235 235 234 230 226 226 224 222 221 222 222 222 222 221 221 220 220 221 220 221 222 223 224 223 223 228 233 236 235 234 229 225 228 232 238 240 237 240 247 249 248 248 258 266 267 269 274 276 278 295 334 63
285 284 283 282 281 280 280 280 280 280 280 280 279 279 278 277 277 276 275 274 273 272 271 270 268 266 264 261 257 254 251 248 245 242 240 236 234 233 234 232 227 225 223 222 222 222 221 221 222 221 221 220 220 220 221 221 222 222 224 224 223 225 230 233 233 233 230 227 229 231 235 240 239 240 244 246 249 250 253 256 258 261 265 265 261 265 277 292
295 293 291 290 288 287 286 285 284 284 283 282 282 281 280 280 279 279 278 277 276 274 272 271 269 267 265 262 259 255 253 251 247 243 241 237 234 232 232 233 230 226 225 224 224 223 223 222 222 222 222 221 221 221 221 222 222 223 224 224 223 224 227 230 230 231 232 230 229 228 231 236 238 237 240 246 248 246 247 245 246 256 261 258 255 252 256 256
307 304 302 300 297 296 293 291 291 289 288 287 285 284 283 282 282 282 281 280 279 277 276 274 271 268 266 263 259 256 253 251 248 244 241 238 235 232 231 232 231 229 227 227 225 224 223 222 222 222 222 222 221 221 221 222 222 223 223 224 224 222 223 227 228 229 230 229 227 226 230 234 237 236 237 245 247 239 238 239 239 248 256 257 255 252 249 250
314 311 309 306 304 303 300 298 296 294 292 290 288 287 286 285 284 283 283 282 280 280 280 276 273 271 267 264 261 258 254 251 249 246 242 239 235 232 230 230 231 230 228 227 226 225 224 223 222 222 222 222 222 222 221 221 222 223 224 226 226 224 224 226 227 228 227 227 227 227 231 235 236 235 234 240 247 241 237 237 237 243 252 258 257 253 250 248
316 314 312 309 308 305 303 301 298 298 296 293 292 290 289 287 285 285 284 282 281 282 280 277 275 273 269 266 263 260 257 253 249 246 243 240 237 233 230 228 230 231 230 227 225 225 224 224 223 223 223 222 222 222 222 222 223 223 224 227 227 226 225 224 225 228 228 229 228 228 231 234 235 235 231 234 240 238 236 235 235 239 245 251 255 253 251 248
319 317 314 312 309 307 305 303 300 299 297 296 295 293 293 289 287 286 283 282 284 283 280 278 277 274 271 268 264 262 259 256 251 247 244 241 238 234 231 228 227 229 231 229 226 224 224 224 224 223 223 223 223 222 222 222 223 223 223 226 228 228 225 224 226 229 232 233 230 227 229 229 229 230 228 228 230 229 231 233 235 237 237 242 253 254 250 249
322 319 317 314 311 309 307 305 304 302 299 297 295 293 292 288 288 286 282 283 284 282 282 282 280 276 273 271 266 263 261 258 254 249 245 242 239 236 232 229 226 227 230 231 228 225 224 224 224 223 223 223 223 223 222 222 222 223 224 225 228 229 227 226 227 229 232 233 231 229 227 226 227 226 224 223 224 226 231 235 236 235 234 238 248 252 250 246
323 320 318 315 312 310 307 306 305 304 302 300 297 295 291 287 288 285 282 283 282 281 282 282 281 279 275 272 269 265 263 261 257 252 247 243 240 237 235 231 227 226 228 230 230 226 224 224 224 224 223 223 224 224 224 223 223 223 224 225 228 229 227 227 228 228 229 229 229 227 225 226 227 226 224 224 229 233 234 235 234 233 234 237 241 247 249 245
324 322 319 316 314 311 308 306 305 304 303 301 299 297 293 291 289 285 284 284 281 280 280 278 280 280 277 272 270 268 265 262 259 255 249 244 241 238 236 233 229 226 226 229 231 228 225 224 224 224 224 223 224 225 225 225 225 226 226 226 228 228 227 227 227 227 227 228 227 224 223 226 226 226 227 228 232 234 233 233 233 232 233 237 240 243 244 243
324 322 319 317 314 311 309 306 305 304 302 300 298 297 295 293 292 289 288 286 283 281 279 277 277 276 274 273 272 268 264 263 261 257 252 246 242 240 237 234 231 227 225 227 230 229 226 225 225 225 225 225 226 226 226 226 227 227 228 228 230 229 227 227 228 228 228 229 228 226 226 228 226 226 229 229 231 234 236 238 236 232 232 236 239 240 242 246
324 322 319 317 314 312 309 306 305 303 301 300 298 296 295 293 293 291 290 290 288 284 281 278 275 272 271 272 270 268 266 264 261 258 254 249 245 242 238 236 233 229 226 225 228 230 228 226 226 226 226 225 226 227 227 227 227 228 228 229 230 230 228 227 228 229 229 229 230 229 230 229 227 228 230 230 230 234 235 237 237 235 233 235 239 241 244 248
325 322 319 316 313 311 309 307 305 303 301 300 298 296 295 293 293 291 291 291 289 287 285 280 274 270 267 266 267 268 268 264 261 259 256 251 246 244 240 238 235 230 227 226 227 230 230 228 227 227 227 226 226 227 227 227 227 227 228 229 230 231 230 229 229 229 229 230 231 231 231 231 230 230 231 231 231 232 232 232 235 235 233 235 239 243 245 246
325 322 318 314 312 310 309 308 305 302 301 299 297 296 294 293 293 292 292 290 289 291 288 280 274 269 266 264 265 266 266 264 263 261 257 252 249 246 242 239 236 232 229 226 226 228 230 230 229 228 228 227 226 227 227 226 226 227 227 229 229 230 230 230 230 230 229 230 232 233 233 233 232 230 231 233 232 232 233 236 237 235 235 236 238 242 243 243
324 323 318 314 312 311 309 307 305 302 300 298 296 295 294 293 293 292 292 290 289 291 286 279 275 273 271 268 265 262 262 265 264 260 258 255 251 248 244 241 238 235 232 228 227 228 230 231 230 229 229 228 227 227 227 226 226 227 227 229 229 229 229 229 229 230 230 230 232 234 235 235 234 232 231 233 233 234 236 238 239 237 236 236 236 239 241 240
321 321 319 316 314 312 309 307 305 302 300 298 296 294 293 292 292 292 291 289 289 287 284 281 278 278 276 271 265 261 260 262 262 261 262 258 252 249 245 243 241 237 234 230 228 228 229 231 230 229 229 229 229 229 228 228 227 227 227 229 230 230 230 229 230 230 230 230 232 233 234 235 236 234 233 232 232 233 236 237 238 237 236 235 234 237 240 239
319 318 318 317 315 313 310 307 305 303 300 298 296 293 292 291 290 290 288 287 287 284 282 283 283 280 276 270 266 262 257 257 259 261 262 257 254 251 247 244 242 239 236 232 229 229 230 232 230 229 229 230 230 230 230 229 229 229 229 230 231 232 232 231 231 231 231 230 231 232 233 234 235 235 234 233 232 232 234 235 236 237 237 235 233 235 240 242
320 316 316 315 314 312 309 307 305 303 301 298 296 294 292 290 289 287 285 284 284 283 282 283 283 280 275 271 268 264 257 254 255 258 258 256 255 254 249 245 243 241 238 235 231 230 231 231 231 230 229 229 229 229 230 230 229 230 231 232 233 233 233 232 231 231 231 230 230 231 232 233 235 236 235 235 234 232 233 235 235 235 236 236 235 237 239 242
323 318 316 315 313 312 309 307 304 302 300 298 296 294 292 290 288 285 283 283 283 282 280 280 280 278 276 273 269 265 258 253 251 251 254 256 255 254 251 246 245 242 239 237 232 231 233 231 230 230 229 229 228 229 230 228 228 230 232 233 234 233 233 232 231 231 231 230 230 231 232 233 234 235 236 235 234 232 232 234 235 235 236 236 237 238 237 238
327 321 318 316 315 313 311 309 306 303 300 298 296 294 292 290 287 284 283 282 281 280 278 278 277 277 277 274 270 266 260 255 251 248 251 255 254 254 252 247 245 243 239 237 233 232 233 231 229 230 229 229 229 229 230 228 227 230 232 233 234 234 233 232 231 230 230 229 229 230 232 232 233 234 235 235 233 232 232 233 234 235 236 237 237 237 237 238
330 324 320 318 317 316 314 312 310 306 302 298 296 293 291 289 285 283 283 281 280 279 277 275 275 275 275 273 270 267 261 255 250 247 248 253 253 252 252 248 245 243 239 237 236 234 234 231 229 230 228 228 229 229 230 229 228 230 231 232 233 233 232 231 231 231 230 229 230 230 232 233 234 233 235 235 234 233 232 232 233 235 235 236 236 236 236 237
333 326 321 319 318 317 316 314 312 309 305 301 296 294 291 287 284 283 283 281 280 278 273 272 272 273 273 272 269 266 262 255 248 247 247 249 251 251 250 248 245 244 241 238 238 236 234 232 228 228 227 227 229 229 229 228 228 229 229 230 230 230 231 231 232 233 232 232 232 233 234 236 237 235 235 235 234 233 233 233 233 233 233 232 234 235 235 236
338 331 323 319 318 317 316 314 312 310 307 303 298 293 289 286 285 284 282 281 279 274 270 270 271 270 269 270 268 265 262 256 248 246 245 245 247 249 249 247 246 246 242 238 238 236 234 232 228 227 226 226 227 227 228 227 226 227 227 228 229 230 231 232 232 233 234 234 234 234 236 237 238 236 235 234 233 232 232 232 231 231 233 232 232 233 234 237
342 336 328 322 319 319 317 314 312 310 308 305 300 294 289 286 285 283 282 280 277 272 269 270 269 267 266 267 266 263 261 257 250 245 244 242 243 246 247 247 246 245 241 238 237 235 235 232 227 226 226 225 225 226 227 227 227 227 227 227 228 229 231 232 233 233 233 233 233 232 234 237 238 237 235 234 233 232 233 234 231 230 231 231 230 230 231 233
345 340 333 327 322 320 318 315 313 310 308 305 300 296 291 286 283 282 281 279 275 272 271 269 267 266 265 264 263 262 260 258 252 247 243 240 240 242 244 244 245 245 241 238 236 234 235 233 226 227 227 223 223 225 227 227 228 229 228 226 226 227 230 232 232 232 233 234 234 233 234 237 238 238 237 237 235 234 235 236 235 232 232 231 230 230 229 230
345 342 337 331 326 323 320 317 315 311 308 304 300 298 293 287 283 281 279 276 274 273 272 268 265 264 263 261 259 258 258 255 251 248 244 239 238 239 240 241 243 243 240 237 235 235 236 233 227 228 226 222 223 225 227 228 228 228 228 227 226 225 228 230 231 231 232 233 234 235 235 237 238 238 238 237 236 236 235 236 236 235 234 232 231 231 231 232
344 342 339 334 329 326 322 319 315 311 308 303 300 297 293 288 284 279 276 274 272 273 272 268 265 262 260 258 254 253 253 252 249 246 243 238 236 236 238 238 239 240 239 235 232 233 234 232 229 228 226 224 225 226 228 228 230 231 231 230 229 227 228 230 231 232 233 234 235 237 238 239 240 240 239 239 238 237 237 237 237 234 232 230 229 230 232 233
344 341 339 336 332 328 324 320 316 312 307 303 300 296 293 289 283 277 274 273 271 271 270 268 265 261 257 255 251 248 249 250 248 244 241 238 235 234 235 234 234 236 237 233 230 231 233 232 232 231 227 226 227 227 228 228 230 234 234 233 232 230 229 230 231 232 233 234 235 237 238 239 239 238 239 240 239 238 237 238 237 233 231 230 229 229 231 232
345 341 338 336 333 329 325 321 316 312 307 303 299 295 292 287 281 277 273 270 269 268 267 266 266 263 256 251 250 246 243 246 247 244 242 240 236 234 233 232 233 235 235 233 229 230 231 230 232 232 227 227 228 230 230 229 229 232 233 234 234 233 231 233 235 235 236 237 237 237 237 237 237 236 236 238 238 237 235 236 236 234 233 231 229 228 228 230
345 342 338 336 333 329 326 321 316 312 307 302 298 294 290 285 280 277 271 267 266 265 264 265 264 262 254 247 247 244 238 238 242 243 242 239 236 234 232 231 232 234 236 236 231 230 230 229 230 232 229 229 233 233 233 230 226 228 231 233 235 236 237 239 238 238 238 237 237 239 239 239 238 236 234 234 234 233 231 232 234 236 234 230 228 227 227 229
344 342 339 336 333 329 326 321 316 312 307 301 297 293 288 283 278 275 270 265 264 262 261 261 261 260 254 245 244 242 237 233 236 239 239 237 234 233 230 229 231 231 233 234 230 229 230 229 229 232 232 231 233 232 230 228 224 224 228 233 236 238 240 242 241 239 238 236 236 239 240 239 241 238 231 229 230 231 231 230 231 236 236 230 228 230 230 230
344 342 339 336 333 330 326 321 316 311 306 300 296 290 286 282 277 273 268 263 261 259 257 257 258 257 253 245 241 239 235 230 230 234 236 235 234 232 230 227 227 227 228 230 228 226 228 228 226 229 232 230 229 229 227 224 223 224 228 234 238 240 241 242 240 238 238 237 235 233 230 231 235 236 231 229 229 232 234 230 229 233 236 232 231 233 234 231
343 342 340 337 333 330 326 322 316 310 305 298 293 287 281 275 270 268 265 260 258 256 255 254 253 254 253 246 240 237 234 228 226 229 233 234 233 232 230 227 225 224 226 229 229 227 228 228 227 229 232 229 226 228 226 223 223 226 230 234 238 240 241 242 241 239 239 240 234 225 223 226 226 228 232 230 226 226 227 227 228 232 236 237 237 236 236 233
342 342 340 338 335 330 326 322 316 309 304 298 292 285 275 266 262 263 262 258 255 253 252 252 251 252 252 246 238 234 231 227 225 227 230 231 230 229 229 228 224 222 225 228 229 229 229 229 227 228 230 229 228 231 231 227 227 228 230 233 236 237 239 241 242 240 239 239 233 221 222 230 228 226 228 226 223 222 221 220 222 227 232 236 238 237 236 233
343 342 340 339 336 331 326 322 315 308 303 298 291 283 273 263 258 258 256 253 251 250 249 249 248 248 247 243 236 232 230 225 222 225 227 228 229 228 228 227 223 222 225 226 226 227 228 227 227 225 227 229 231 233 233 231 230 229 229 230 232 233 235 237 240 239 238 238 232 222 224 230 231 228 225 224 223 222 218 216 218 222 226 232 235 235 235 232
343 342 340 338 336 332 327 322 315 308 302 297 290 281 274 267 260 256 252 249 248 246 245 245 246 245 244 243 237 233 230 225 222 223 225 226 227 227 227 227 222 220 225 225 223 224 226 227 226 224 225 229 231 232 232 231 230 230 230 231 232 232 233 235 238 240 242 240 235 230 228 226 227 227 224 223 225 225 222 222 225 226 228 232 235 234 234 234
343 343 341 339 337 333 329 324 317 310 304 298 291 283 276 268 262 258 253 248 245 243 241 242 243 243 243 242 238 233 228 225 223 222 223 224 225 226 227 226 220 217 221 223 222 223 224 226 226 224 223 226 229 230 231 232 232 232 232 232 233 234 235 236 238 242 244 243 239 236 231 225 224 227 227 224 225 228 229 230 231 228 225 226 227 228 233 237
344 343 342 340 338 335 331 326 320 314 306 300 293 286 279 271 265 260 253 246 241 239 237 237 239 242 241 237 236 231 225 222 221 221 222 223 224 226 227 226 222 217 217 219 221 221 222 224 225 224 222 222 225 227 228 230 232 232 233 233 233 234 236 237 238 240 242 242 239 238 235 229 226 227 230 229 228 231 231 230 230 229 226 223 221 220 225 234
345 344 343 342 339 336 333 328 323 317 309 302 296 289 281 273 266 259 251 244 238 235 233 233 234 239 238 232 230 228 224 221 221 220 221 222 222 225 226 226 225 222 217 219 221 221 222 223 223 224 224 222 223 225 227 229 229 230 233 233 231 232 235 236 236 238 241 241 239 239 238 235 230 228 229 230 230 231 231 230 230 232 231 228 221 217 221 230
345 345 344 343 340 338 334 330 325 320 312 305 298 289 280 272 266 257 250 244 239 234 231 230 230 233 234 230 228 227 224 221 220 219 219 218 218 220 220 220 222 220 216 218 220 220 222 223 223 224 224 223 223 224 227 229 228 227 230 231 230 231 233 234 235 237 241 244 244 245 244 242 240 236 233 232 233 232 231 230 229 231 234 233 227 222 225 232
Height
10928 10928 10928 10928 10928 10927 10927 10927 10927 10927 10927 10927 10927 10927 10927 10928 10928 10928 10928 10928 10929 10929 10930 10931 10932 10933 10934 10935 10937 10938 10940 10942 10944 10946 10948 10950 10952 10953 10955 10958 10960 10963 10966 10969 10972 10976 10978 10982 10985 10985 10981 10977 10977 10979 10980 10980 10981 10983 10987 10989 10990 10991 10993 10994 10994 10995 10994 10995 10995 10995 10995 10994 10994 10994 10993 10993 10992 10991 10990 10989 10987 10985 10984 10982 10981 10978 10976 10974
10926 10926 10926 10926 10926 10926 10926 10925 10926 10926 10925 10925 10925 10925 10926 10926 10926 10926 10926 10926 10927 10927 10928 10928 10929 10931 10932 10933 10934 10936 10937 10939 10941 10943 10945 10947 10949 10951 10953 10955 10957 10960 10963 10967 10970 10973 10975 10977 10979 10978 10976 10975 10977 10979 10980 10981 10982 10984 10986 10988 10989 10990 10992 10992 10993 10993 10993 10994 10994 10994 10994 10994 10994 10994 10993 10993 10992 10992 10991 10990 10988 10987 10985 10984 10982 10980 10978 10976
10925 10925 10925 10924 10924 10924 10924 10924 10924 10924 10924 10924 10924 10924 10924 10924 10924 10924 10924 10924 10925 10925 10925 10926 10927 10928 10929 10930 10932 10933 10935 10936 10938 10940 10943 10945 10946 10948 10950 10952 10955 10957 10960 10964 10967 10969 10971 10973 10973 10972 10972 10974 10976 10979 10979 10980 10981 10983 10985 10986 10988 10989 10991 10991 10991 10992 10992 10992 10993 10993 10993 10993 10993 10993 10993 10992 10992 10991 10991 10990 10989 10987 10986 10985 10983 10982 10980 10978
10923 10923 10923 10923 10923 10922 10922 10922 10922 10922 10922 10921 10921 10922 10922 10922 10922 10922 10922 10923 10923 10923 10924 10924 10925 10925 10926 10927 10929 10930 10932 10933 10935 10937 10939 10941 10943 10945 10947 10950 10952 10954 10957 10960 10963 10966 10967 10970 10970 10969 10970 10973 10974 10975 10976 10977 10979 10981 10984 10985 10987 10989 10990 10991 10991 10993 10993 10991 10992 10992 10992 10992 10992 10992 10992 10992 10992 10991 10991 10990 10989 10988 10987 10986 10985 10983 10982 10980
10922 10922 10921 10921 10921 10921 10920 10920 10920 10920 10920 10919 10919 10919 10919 10919 10920 10920 10920 10920 10921 10921 10921 10922 10922 10923 10924 10925 10926 10927 10929 10930 10932 10934 10936 10938 10940 10942 10944 10947 10949 10952 10954 10957 10960 10962 10963 10965 10966 10966 10968 10971 10972 10973 10974 10975 10977 10980 10982 10984 10986 10988 10989 10990 10991 10993 10992 10990 10991 10992 10991 10992 10991 10991 10991 10992 10991 10991 10991 10990 10990 10988 10988 10987 10986 10985 10983 10982
10920 10920 10920 10919 10919 10919 10918 10918 10918 10918 10918 10917 10917 10917 10917 10917 10917 10917 10917 10918 10918 10919 10919 10919 10920 10920 10921 10922 10923 10924 10926 10927 10929 10931 10933 10935 10936 10939 10941 10944 10946 10949 10951 10954 10956 10957 10959 10961 10961 10962 10965 10967 10970 10972 10973 10974 10976 10978 10981 10982 10985 10986 10987 10989 10990 10990 10990 10990 10991 10990 10990 10991 10990 10990 10991 10991 10991 10991 10991 10990 10990 10989 10988 10988 10987 10986 10984 10983
10918 10918 10918 10918 10917 10917 10917 10916 10916 10916 10916 10915 10915 10915 10915 10915 10915 10915 10915 10915 10916 10916 10917 10917 10917 10918 10918 10919 10920 10921 10923 10924 10926 10927 10929 10931 10933 10935 10938 10941 10943 10946 10948 10950 10952 10954 10955 10957 10957 10959 10962 10964 10967 10970 10970 10972 10975 10977 10979 10980 10982 10984 10986 10987 10987 10987 10988 10989 10989 10989 10989 10989 10989 10989 10990 10990 10990 10990 10991 10990 10990 10989 10989 10988 10987 10987 10986 10985
10917 10916 10916 10915 10915 10915 10915 10914 10914 10914 10913 10913 10913 10913 10913 10913 10913 10913 10913 10913 10913 10913 10914 10914 10915 10915 10916 10916 10917 10918 10919 10921 10922 10924 10925 10927 10929 10931 10934 10938 10940 10942 10945 10947 10949 10950 10952 10954 10954 10957 10960 10961 10964 10967 10968 10970 10972 10974 10975 10976 10978 10981 10982 10984 10984 10985 10987 10987 10988 10987 10986 10986 10987 10988 10989 10989 10990 10990 10990 10990 10990 10990 10989 10989 10988 10987 10987 10986
10915 10914 10914 10913 10913 10913 10912 10912 10912 10912 10911 10911 10911 10910 10910 10910 10910 10910 10910 10910 10910 10910 10911 10911 10912 10912 10913 10913 10914 10915 10916 10918 10919 10921 10922 10923 10925 10928 10931 10934 10937 10939 10941 10943 10945 10946 10948 10950 10952 10954 10956 10959 10962 10964 10965 10967 10969 10971 10972 10974 10975 10977 10979 10981 10982 10983 10984 10984 10985 10983 10982 10984 10986 10987 10988 10989 10989 10989 10990 10990 10990 10990 10990 10989 10989 10988 10987 10987
10913 10912 10912 10911 10911 10911 10910 10910 10910 10909 10909 10909 10908 10908 10907 10907 10907 10907 10907 10907 10907 10908 10908 10908 10909 10910 10910 10911 10911 10912 10913 10914 10916 10917 10919 10920 10922 10924 10927 10930 10933 10935 10937 10939 10941 10943 10945 10947 10949 10951 10953 10957 10959 10961 10963 10965 10967 10969 10971 10972 10973 10974 10976 10977 10979 10981 10981 10982 10982 10981 10981 10984 10985 10986 10987 10988 10988 10989 10989 10990 10989 10990 10990 10989 10989 10989 10988 10987
10911 10910 10910 10909 10909 10908 10908 10908 10907 10907 10906 10906 10906 10905 10905 10904 10904 10904 10904 10904 10904 10905 10905 10905 10906 10907 10907 10908 10908 10909 10910 10911 10912 10914 10915 10917 10918 10921 10924 10927 10929 10931 10933 10935 10937 10939 10941 10943 10945 10947 10950 10954 10956 10957 10960 10962 10964 10967 10968 10970 10971 10972 10973 10975 10976 10978 10980 10980 10980 10981 10981 10984 10985 10986 10986 10987 10987 10988 10988 10989 10989 10989 10989 10989 10989 10989 10988 10988
10909 10908 10908 10907 10906 10906 10905 10905 10905 10904 10904 10904 10903 10902 10902 10902 10901 10901 10901 10901 10901 10902 10902 10902 10903 10903 10904 10904 10905 10906 10906 10907 10909 10910 10912 10914 10915 10917 10919 10923 10925 10926 10929 10931 10933 10935 10937 10939 10942 10944 10947 10950 10952 10954 10956 10958 10961 10963 10965 10966 10967 10969 10971 10972 10974 10975 10978 10979 10979 10979 10980 10982 10984 10984 10985 10986 10986 10987 10987 10987 10988 10988 10989 10989 10989 10989 10989 10988
10906 10906 10905 10905 10904 10904 10903 10902 10902 10902 10901 10901 10900 10900 10899 10899 10898 10898 10898 10898 10898 10898 10899 10899 10899 10900 10900 10901 10901 10902 10903 10904 10905 10906 10908 10910 10912 10913 10915 10918 10921 10922 10924 10927 10929 10931 10933 10935 10937 10940 10943 10946 10948 10950 10952 10955 10957 10958 10960 10963 10964 10966 10967 10968 10970 10972 10974 10976 10977 10977 10978 10979 10981 10982 10983 10984 10984 10985 10986 10986 10987 10987 10988 10988 10989 10989 10989 10988
10904 10903 10903 10902 10902 10901 10901 10900 10900 10899 10899 10898 10897 10897 10896 10896 10895 10895 10895 10895 10895 10895 10895 10895 10896 10896 10897 10897 10898 10899 10899 10900 10901 10903 10904 10907 10909 10910 10912 10914 10916 10918 10920 10922 10924 10927 10929 10931 10933 10936 10938 10941 10943 10945 10947 10950 10952 10953 10956 10958 10960 10962 10963 10965 10967 10968 10971 10973 10974 10976 10976 10976 10978 10980 10981 10981 10983 10983 10984 10985 10986 10986 10987 10987 10988 10989 10989 10988
10902 10901 10900 10900 10900 10899 10899 10898 10897 10897 10896 10896 10895 10894 10894 10893 10893 10892 10892 10892 10892 10892 10892 10892 10892 10893 10893 10893 10894 10895 10895 10896 10897 10899 10900 10903 10905 10907 10908 10910 10912 10914 10916 10918 10920 10923 10925 10927 10929 10931 10934 10937 10939 10940 10942 10945 10948 10950 10951 10953 10956 10958 10960 10962 10963 10965 10968 10970 10972 10974 10974 10974 10976 10978 10979 10979 10981 10982 10982 10983 10984 10985 10985 10986 10987 10988 10988 10988
10900 10899 10899 10898 10898 10897 10897 10896 10895 10895 10894 10894 10893 10892 10892 10891 10891 10890 10889 10889 10889 10889 10889 10889 10889 10890 10890 10889 10890 10891 10891 10892 10893 10895 10896 10898 10901 10903 10905 10906 10907 10910 10912 10914 10916 10919 10921 10923 10925 10928 10930 10932 10934 10935 10938 10941 10943 10946 10947 10948 10951 10953 10956 10959 10960 10962 10964 10967 10970 10971 10972 10973 10975 10977 10978 10978 10979 10980 10981 10982 10983 10984 10984 10985 10986 10987 10988 10988
10899 10898 10897 10897 10896 10896 10895 10894 10894 10893 10893 10892 10891 10891 10890 10889 10889 10888 10887 10887 10886 10886 10886 10886 10886 10887 10886 10886 10887 10887 10888 10888 10889 10891 10892 10894 10897 10899 10901 10902 10903 10905 10907 10910 10912 10915 10917 10919 10921 10924 10925 10928 10930 10931 10934 10936 10938 10942 10944 10945 10947 10949 10953 10957 10958 10959 10962 10964 10967 10969 10970 10971 10973 10975 10976 10976 10977 10978 10979 10980 10982 10982 10983 10985 10986 10986 10987 10987
10898 10897 10896 10895 10894 10894 10893 10893 10892 10891 10891 10890 10889 10889 10888 10888 10887 10886 10885 10884 10884 10884 10884 10883 10883 10884 10883 10883 10883 10883 10884 10884 10885 10887 10888 10890 10892 10895 10897 10899 10900 10901 10903 10905 10908 10910 10913 10915 10917 10919 10921 10923 10925 10927 10930 10932 10934 10938 10941 10941 10943 10946 10950 10954 10955 10956 10959 10962 10964 10966 10968 10969 10971 10973 10974 10975 10975 10976 10977 10979 10981 10982 10983 10984 10985 10985 10986 10986
10897 10896 10895 10894 10893 10892 10891 10890 10890 10889 10889 10888 10887 10886 10886 10885 10885 10884 10883 10882 10881 10881 10881 10880 10881 10881 10880 10880 10880 10880 10881 10881 10882 10883 10884 10886 10888 10890 10893 10895 10896 10897 10898 10901 10904 10907 10909 10911 10913 10915 10916 10918 10921 10923 10925 10928 10931 10934 10936 10937 10939 10943 10947 10950 10952 10954 10956 10959 10961 10963 10965 10967 10969 10970 10972 10973 10973 10975 10976 10978 10979 10981 10982 10983 10984 10984 10985 10985
10895 10894 10893 10892 10891 10890 10889 10888 10887 10887 10886 10886 10885 10884 10884 10882 10882 10882 10880 10880 10880 10879 10879 10878 10878 10879 10878 10877 10877 10878 10878 10878 10879 10879 10881 10882 10884 10886 10888 10890 10893 10894 10895 10896 10900 10903 10905 10907 10908 10910 10912 10913 10916 10917 10919 10923 10926 10928 10930 10933 10935 10939 10943 10945 10948 10951 10953 10955 10957 10960 10962 10963 10965 10967 10969 10970 10971 10973 10974 10976 10977 10979 10980 10981 10982 10982 10983 10984
10894 10893 10892 10890 10889 10888 10887 10886 10885 10884 10883 10883 10882 10882 10881 10879 10880 10879 10877 10878 10877 10876 10877 10876 10875 10876 10876 10875 10874 10875 10875 10875 10875 10876 10878 10879 10880 10882 10883 10886 10889 10890 10892 10893 10895 10898 10901 10902 10904 10905 10907 10909 10911 10912 10915 10918 10921 10923 10926 10929 10931 10935 10939 10942 10944 10947 10949 10951 10954 10957 10959 10959 10962 10964 10966 10967 10968 10970 10972 10973 10975 10977 10978 10979 10980 10981 10982 10983
10892 10891 10889 10888 10887 10886 10885 10883 10882 10881 10881 10880 10879 10879 10878 10877 10877 10876 10874 10875 10874 10874 10874 10873 10873 10873 10873 10872 10871 10872 10872 10872 10872 10873 10874 10875 10876 10878 10880 10882 10884 10887 10889 10890 10891 10893 10896 10898 10899 10901 10903 10905 10906 10908 10912 10915 10917 10919 10922 10925 10927 10931 10936 10939 10941 10943 10945 10947 10950 10954 10954 10955 10959 10961 10962 10965 10966 10967 10969 10971 10973 10974 10975 10976 10978 10979 10980 10981
10890 10888 10887 10886 10884 10883 10882 10881 10880 10879 10878 10877 10876 10875 10875 10873 10873 10873 10872 10871 10871 10871 10870 10870 10870 10870 10869 10869 10869 10869 10869 10870 10870 10870 10871 10872 10873 10874 10876 10878 10880 10883 10885 10886 10887 10888 10891 10894 10895 10897 10899 10901 10903 10905 10908 10911 10914 10917 10920 10922 10923 10927 10932 10935 10936 10938 10941 10943 10946 10949 10950 10952 10955 10957 10959 10962 10963 10964 10966 10968 10970 10972 10973 10974 10975 10977 10978 10979
10888 10887 10885 10883 10881 10880 10880 10878 10877 10876 10874 10874 10873 10872 10871 10870 10870 10869 10869 10868 10868 10867 10867 10867 10866 10866 10866 10866 10865 10865 10867 10867 10866 10866 10868 10869 10870 10871 10872 10874 10876 10879 10881 10883 10883 10884 10887 10889 10891 10893 10896 10898 10900 10902 10905 10908 10911 10914 10916 10917 10918 10923 10927 10930 10932 10934 10937 10939 10941 10944 10946 10949 10952 10954 10956 10958 10960 10961 10963 10965 10967 10969 10971 10972 10973 10974 10976 10978
10887 10885 10883 10880 10878 10877 10876 10875 10874 10872 10871 10870 10869 10868 10867 10866 10866 10865 10866 10866 10864 10864 10864 10863 10862 10862 10862 10862 10861 10862 10864 10864 10863 10864 10865 10866 10867 10867 10869 10871 10873 10875 10877 10879 10880 10881 10883 10885 10887 10889 10892 10894 10896 10898 10901 10904 10907 10909 10910 10911 10915 10919 10922 10925 10928 10930 10933 10935 10937 10940 10942 10945 10948 10951 10953 10955 10957 10959 10960 10963 10965 10968 10969 10970 10970 10972 10974 10976
10886 10883 10881 10878 10876 10874 10872 10871 10870 10868 10867 10866 10865 10864 10863 10862 10862 10861 10862 10862 10861 10861 10859 10858 10858 10857 10857 10858 10858 10859 10860 10860 10860 10861 10861 10862 10864 10864 10866 10867 10869 10871 10873 10875 10877 10877 10879 10881 10883 10885 10888 10890 10892 10894 10897 10900 10902 10903 10905 10908 10911 10914 10917 10920 10923 10926 10930 10932 10933 10936 10938 10940 10944 10948 10949 10951 10954 10956 10957 10960 10962 10965 10967 10968 10969 10969 10972 10974
10884 10882 10879 10876 10874 10871 10869 10868 10867 10865 10863 10862 10861 10860 10859 10858 10857 10857 10858 10857 10858 10858 10854 10852 10854 10854 10854 10855 10854 10855 10857 10857 10857 10857 10857 10860 10861 10861 10862 10864 10865 10867 10869 10871 10873 10875 10876 10877 10879 10882 10883 10886 10888 10890 10893 10896 10897 10899 10902 10904 10906 10909 10911 10915 10918 10922 10926 10928 10930 10932 10934 10936 10939 10944 10946 10948 10951 10953 10955 10957 10959 10962 10965 10966 10967 10968 10969 10972
10882 10880 10877 10874 10872 10869 10867 10865 10863 10861 10860 10858 10857 10856 10854 10854 10853 10853 10853 10852 10854 10854 10849 10848 10851 10851 10851 10851 10850 10851 10854 10854 10853 10854 10854 10856 10857 10857 10859 10861 10862 10863 10865 10867 10870 10871 10872 10873 10875 10878 10879 10882 10884 10887 10890 10891 10893 10896 10899 10899 10901 10903 10906 10910 10914 10918 10922 10924 10926 10928 10930 10931 10934 10938 10941 10943 10946 10949 10951 10953 10956 10959 10962 10964 10965 10966 10967 10969
10879 10877 10875 10872 10869 10867 10864 10861 10859 10858 10856 10854 10853 10852 10850 10850 10849 10848 10848 10847 10848 10849 10846 10844 10846 10846 10847 10847 10846 10847 10850 10849 10849 10851 10851 10851 10853 10854 10856 10857 10858 10860 10861 10864 10866 10868 10868 10869 10871 10874 10876 10878 10881 10883 10885 10887 10890 10893 10895 10895 10896 10899 10903 10907 10911 10915 10917 10919 10921 10923 10924 10927 10929 10932 10936 10939 10942 10946 10948 10949 10952 10955 10957 10960 10963 10964 10965 10965
10877 10875 10872 10870 10867 10864 10862 10859 10856 10854 10852 10850 10849 10848 10846 10845 10844 10844 10843 10842 10843 10844 10842 10841 10841 10841 10842 10844 10843 10843 10845 10845 10846 10848 10847 10847 10849 10851 10852 10854 10854 10856 10858 10860 10862 10864 10864 10865 10867 10870 10873 10875 10877 10879 10880 10883 10887 10889 10890 10891 10893 10896 10900 10903 10907 10910 10912 10913 10916 10917 10919 10922 10925 10927 10931 10934 10938 10943 10944 10945 10949 10951 10953 10956 10959 10961 10963 10963
10874 10872 10870 10867 10864 10861 10859 10856 10853 10850 10848 10847 10845 10843 10842 10841 10840 10838 10838 10838 10838 10839 10838 10837 10837 10836 10837 10840 10839 10839 10841 10840 10843 10844 10842 10843 10846 10847 10848 10850 10851 10853 10855 10856 10858 10859 10860 10862 10864 10867 10869 10871 10874 10875 10876 10880 10883 10883 10885 10887 10890 10893 10896 10899 10902 10904 10906 10908 10910 10912 10915 10918 10920 10922 10925 10929 10934 10939 10941 10942 10945 10946 10948 10952 10955 10957 10960 10961
10871 10869 10867 10864 10861 10858 10855 10853 10850 10847 10845 10843 10841 10839 10837 10836 10834 10832 10832 10833 10833 10834 10833 10832 10832 10831 10832 10835 10835 10836 10836 10836 10839 10840 10838 10840 10843 10844 10845 10846 10848 10849 10850 10852 10854 10856 10856 10858 10862 10863 10865 10868 10869 10871 10873 10877 10879 10879 10881 10883 10885 10888 10891 10894 10897 10898 10900 10902 10904 10907 10910 10912 10914 10917 10919 10923 10929 10934 10936 10939 10941 10941 10944 10948 10951 10954 10956 10958
10867 10865 10863 10860 10858 10855 10852 10849 10846 10844 10841 10839 10837 10835 10832 10831 10829 10826 10827 10828 10828 10830 10828 10826 10827 10827 10828 10829 10830 10831 10832 10833 10835 10834 10835 10837 10838 10840 10841 10843 10844 10844 10846 10849 10851 10852 10853 10856 10859 10859 10861 10864 10865 10867 10870 10874 10876 10876 10877 10878 10881 10884 10886 10888 10890 10892 10895 10897 10900 10902 10905 10907 10909 10912 10916 10920 10925 10929 10931 10934 10936 10938 10941 10943 10946 10950 10952 10953
10863 10861 10859 10856 10854 10851 10848 10845 10842 10839 10837 10835 10832 10830 10827 10825 10823 10822 10822 10822 10823 10825 10822 10820 10821 10822 10823 10824 10825 10827 10826 10828 10830 10829 10831 10834 10834 10836 10837 10839 10841 10841 10844 10846 10847 10848 10851 10853 10854 10855 10858 10860 10861 10863 10866 10870 10872 10871 10872 10874 10877 10879 10881 10884 10885 10887 10891 10894 10897 10899 10902 10904 10905 10909 10913 10916 10920 10923 10926 10930 10932 10933 10936 10939 10942 10945 10947 10948
10861 10858 10855 10852 10849 10847 10844 10840 10837 10835 10832 10830 10827 10825 10822 10818 10817 10817 10817 10816 10816 10818 10816 10815 10816 10817 10818 10819 10820 10822 10821 10823 10826 10825 10827 10830 10830 10832 10834 10835 10837 10838 10841 10843 10843 10846 10848 10849 10850 10853 10855 10856 10857 10860 10863 10865 10865 10866 10868 10871 10873 10876 10878 10880 10882 10884 10887 10890 10893 10896 10898 10899 10900 10905 10909 10912 10916 10918 10920 10924 10927 10928 10931 10935 10938 10941 10943 10944
10858 10855 10852 10849 10845 10842 10839 10835 10833 10830 10827 10825 10822 10819 10816 10813 10812 10811 10811 10811 10809 10809 10810 10810 10810 10811 10813 10814 10815 10816 10816 10818 10821 10822 10822 10824 10826 10828 10830 10832 10833 10835 10838 10839 10840 10843 10843 10845 10848 10850 10850 10852 10855 10857 10858 10859 10860 10863 10866 10868 10870 10873 10874 10876 10878 10881 10883 10886 10889 10891 10893 10894 10896 10901 10904 10907 10911 10913 10915 10919 10922 10924 10927 10931 10934 10937 10939 10941
10855 10851 10848 10845 10841 10838 10834 10830 10827 10824 10821 10819 10816 10813 10811 10807 10806 10805 10806 10805 10801 10802 10805 10805 10804 10805 10808 10809 10810 10810 10811 10813 10816 10818 10818 10820 10822 10824 10826 10828 10830 10832 10834 10835 10838 10839 10840 10843 10846 10846 10847 10851 10852 10853 10853 10855 10858 10861 10863 10865 10867 10869 10871 10873 10875 10878 10880 10882 10884 10886 10889 10890 10893 10897 10900 10903 10906 10908 10911 10915 10917 10920 10923 10927 10930 10932 10934 10936
10851 10847 10844 10840 10837 10833 10829 10825 10822 10818 10815 10812 10809 10807 10805 10801 10800 10799 10800 10798 10794 10795 10799 10798 10798 10801 10802 10803 10805 10805 10805 10808 10811 10812 10813 10816 10818 10819 10821 10825 10826 10828 10830 10832 10834 10836 10837 10841 10843 10843 10845 10848 10849 10849 10851 10853 10855 10857 10859 10862 10864 10865 10867 10869 10872 10875 10877 10879 10881 10883 10885 10887 10890 10894 10896 10899 10902 10905 10907 10909 10912 10915 10919 10923 10925 10926 10928 10930
10846 10842 10839 10835 10831 10827 10823 10819 10815 10811 10808 10805 10802 10800 10798 10796 10794 10793 10793 10791 10787 10790 10792 10789 10791 10795 10796 10797 10799 10799 10799 10802 10805 10807 10808 10811 10813 10815 10818 10821 10822 10823 10826 10829 10831 10833 10834 10837 10839 10840 10843 10845 10846 10846 10848 10851 10853 10855 10857 10860 10861 10862 10865 10867 10869 10871 10873 10875 10877 10879 10882 10885 10888 10891 10893 10895 10899 10901 10903 10905 10907 10911 10914 10916 10918 10919 10922 10925
10840 10836 10832 10829 10825 10821 10817 10812 10808 10804 10800 10797 10794 10792 10790 10789 10786 10785 10786 10783 10780 10784 10785 10782 10783 10788 10790 10791 10791 10793 10794 10796 10799 10801 10802 10806 10809 10811 10813 10816 10818 10819 10823 10826 10828 10829 10831 10834 10836 10838 10841 10842 10843 10843 10846 10849 10851 10853 10855 10856 10858 10860 10862 10864 10866 10868 10870 10872 10874 10876 10879 10882 10885 10887 10889 10893 10895 10897 10900 10902 10904 10907 10908 10909 10912 10916 10919 10921
10836 10830 10825 10821 10818 10813 10809 10804 10800 10797 10792 10788 10786 10783 10783 10781 10777 10777 10780 10776 10773 10776 10777 10775 10777 10781 10784 10784 10783 10786 10790 10791 10793 10796 10798 10801 10804 10805 10808 10811 10814 10816 10819 10822 10825 10825 10827 10831 10834 10836 10838 10839 10839 10842 10845 10847 10850 10851 10852 10853 10855 10857 10859 10862 10864 10866 10868 10869 10871 10873 10875 10878 10881 10884 10887 10890 10892 10894 10895 10897 10900 10902 10903 10905 10909 10913 10915 10916
10831 10825 10819 10814 10809 10805 10801 10796 10791 10788 10783 10779 10777 10775 10774 10772 10768 10768 10771 10769 10766 10769 10769 10769 10770 10772 10776 10776 10775 10778 10784 10786 10787 10790 10793 10796 10798 10800 10803 10807 10810 10813 10816 10820 10822 10822 10824 10828 10831 10833 10834 10836 10838 10841 10843 10845 10847 10849 10850 10851 10853 10855 10858 10861 10862 10864 10865 10866 10867 10869 10872 10875 10878 10881 10885 10887 10888 10890 10891 10893 10896 10897 10898 10901 10904 10907 10910 10912
10825 10820 10813 10807 10802 10796 10791 10786 10781 10778 10774 10769 10767 10765 10764 10763 10759 10758 10761 10761 10760 10761 10762 10762 10763 10764 10767 10768 10768 10771 10777 10781 10783 10785 10786 10789 10792 10795 10799 10803 10806 10810 10814 10815 10817 10819 10821 10825 10828 10829 10831 10834 10836 10838 10840 10842 10845 10846 10847 10849 10851 10854 10857 10859 10860 10861 10862 10863 10865 10867 10870 10872 10875 10878 10881 10882 10884 10885 10886 10889 10892 10892 10893 10896 10899 10901 10904 10908
10818 10814 10806 10799 10792 10787 10782 10776 10770 10767 10763 10759 10757 10756 10754 10753 10750 10749 10751 10752 10751 10752 10754 10755 10756 10757 10759 10760 10761 10765 10770 10775 10778 10778 10780 10783 10787 10790 10794 10798 10801 10806 10808 10808 10810 10814 10817 10820 10824 10825 10829 10832 10833 10834 10837 10839 10841 10843 10845 10847 10849 10852 10854 10856 10857 10858 10859 10861 10864 10866 10868 10869 10871 10874 10876 10878 10880 10882 10883 10886 10888 10888 10889 10891 10895 10897 10899 10902
10810 10806 10800 10792 10783 10775 10770 10765 10759 10754 10751 10748 10747 10745 10744 10742 10740 10739 10741 10742 10742 10744 10746 10747 10748 10749 10751 10754 10755 10758 10763 10767 10771 10772 10774 10778 10782 10785 10789 10792 10796 10801 10803 10803 10806 10811 10813 10816 10820 10823 10826 10829 10829 10830 10833 10836 10838 10841 10843 10845 10847 10849 10851 10852 10853 10855 10857 10859 10861 10864 10866 10866 10868 10870 10872 10874 10877 10879 10880 10883 10885 10885 10886 10887 10890 10892 10894 10897
10801 10795 10790 10785 10777 10766 10758 10752 10747 10741 10737 10735 10734 10733 10732 10731 10730 10729 10731 10732 10733 10735 10737 10739 10741 10743 10744 10746 10748 10750 10755 10760 10764 10766 10769 10773 10776 10780 10784 10786 10791 10796 10798 10800 10804 10808 10811 10814 10817 10820 10822 10823 10824 10827 10832 10835 10836 10838 10841 10843 10845 10846 10848 10849 10850 10852 10855 10857 10859 10862 10863 10864 10866 10868 10869 10871 10874 10875 10877 10880 10881 10882 10883 10884 10886 10888 10890 10892
10794 10785 10777 10771 10766 10758 10749 10742 10735 10729 10725 10723 10722 10721 10720 10719 10719 10719 10720 10722 10724 10727 10729 10731 10733 10735 10736 10738 10740 10743 10747 10753 10757 10759 10763 10767 10770 10775 10778 10780 10786 10792 10794 10796 10801 10805 10807 10810 10813 10816 10817 10818 10821 10826 10830 10832 10834 10836 10838 10840 10841 10843 10845 10846 10847 10849 10852 10854 10857 10859 10860 10862 10864 10865 10867 10869 10871 10872 10874 10876 10878 10879 10880 10880 10882 10884 10886 10887
10787 10779 10769 10760 10753 10745 10738 10731 10725 10718 10714 10712 10710 10709 10707 10707 10707 10708 10710 10712 10714 10718 10720 10722 10724 10727 10729 10731 10735 10738 10742 10747 10751 10753 10757 10760 10764 10768 10771 10775 10783 10788 10788 10791 10797 10800 10802 10806 10808 10811 10814 10815 10819 10823 10826 10828 10831 10833 10835 10837 10839 10840 10841 10842 10844 10847 10849 10852 10855 10856 10857 10859 10861 10863 10865 10867 10868 10868 10870 10872 10874 10875 10877 10877 10879 10881 10882 10883
10780 10771 10762 10752 10742 10734 10726 10719 10714 10709 10704 10701 10700 10698 10697 10696 10696 10697 10701 10704 10705 10709 10712 10714 10716 10719 10722 10726 10730 10733 10736 10740 10744 10747 10750 10754 10758 10763 10766 10771 10777 10781 10782 10787 10793 10796 10798 10801 10804 10808 10810 10812 10816 10820 10823 10825 10827 10830 10833 10834 10836 10838 10838 10839 10842 10844 10846 10849 10851 10853 10854 10857 10860 10861 10863 10865 10866 10866 10867 10869 10870 10872 10874 10875 10877 10879 10880 10880
10773 10763 10753 10742 10732 10723 10715 10708 10704 10699 10695 10692 10690 10688 10687 10687 10687 10689 10692 10694 10696 10700 10703 10706 10708 10712 10717 10721 10724 10725 10728 10733 10738 10741 10746 10751 10755 10758 10762 10767 10772 10776 10779 10783 10787 10791 10794 10797 10800 10803 10806 10809 10812 10816 10819 10822 10824 10827 10829 10832 10834 10834 10835 10837 10839 10841 10843 10846 10848 10850 10852 10855 10857 10859 10859 10861 10863 10864 10865 10866 10867 10869 10871 10872 10874 10876 10877 10876
10766 10756 10745 10733 10722 10713 10706 10699 10694 10691 10687 10683 10681 10680 10679 10678 10679 10681 10682 10684 10686 10689 10693 10697 10701 10706 10710 10713 10715 10717 10723 10729 10734 10737 10743 10748 10750 10753 10757 10763 10767 10772 10777 10780 10783 10786 10789 10792 10795 10799 10802 10806 10809 10812 10815 10818 10820 10823 10826 10828 10830 10831 10831 10833 10835 10838 10840 10844 10846 10848 10850 10852 10854 10855 10856 10857 10859 10860 10861 10863 10865 10866 10866 10868 10870 10872 10872 10872
10758 10748 10738 10726 10715 10705 10698 10692 10687 10683 10680 10676 10674 10673 10671 10671 10672 10672 10673 10675 10677 10680 10685 10690 10694 10698 10701 10704 10709 10714 10720 10725 10728 10731 10735 10738 10741 10744 10750 10754 10758 10764 10770 10774 10777 10781 10784 10787 10791 10794 10798 10802 10805 10809 10811 10812 10815 10819 10821 10823 10825 10826 10828 10830 10833 10836 10839 10841 10844 10845 10847 10849 10851 10852 10852 10854 10855 10856 10857 10859 10861 10862 10862 10863 10866 10867 10867 10868